GSAT-15

Last updated on Jan. 27, 2020, 4:38 a.m. UTC

1 41028U 15065A   20026.86698919 -.00000264  00000-0  00000-0 0  9991
2 41028   0.0645 270.7573 0001366 325.7535 294.6844  1.00272659 15431
UTC
Height (km)
Latitude
Longitude
Inclination
Orbital Period
UTC large
Height (km)
Speed (km/s)
/
Latitude / Longitude
Inclination (degrees)
Orbital Period (minutes)
Azimuth
Elevation
Range (km)
Doppler Factor
iOS Compass Heading
iOS Angle

Next 30 passes for location: Hong Kong

Rise time Rise Azimuth (degrees) Set time Set Azimuth (degrees) Duration Max altitude (degrees)

No matching passes for this satellites